Guymon, OK

8:43 AM CST on December 15, 2017 (GMT -0600)
Guymon Municipal

Weather History for KGUY - April, 2013

Change the Weather History Date:

Friday, April 19, 2013

  Actual Average Record
Temperature  
Mean Temperature 45 °F 56 °F  
Max Temperature 66 °F 71 °F 91 °F (2001)
Min Temperature 24 °F 41 °F 24 °F (2013)
Degree Days  
Heating Degree Days 20 9  
Month to date heating degree days 308 224  
Since 1 July heating degree days 4099 4272  
Cooling Degree Days 0 0  
Month to date cooling degree days 6 0  
Year to date cooling degree days 6 2  
Moisture  
Dew Point 15 °F    
Average Humidity 47    
Maximum Humidity 81    
Minimum Humidity 12    
Precipitation  
Precipitation 0.00 in 0.05 in 1.42 in (2016)
Month to date precipitation 0.18 0.92  
Year to date precipitation 1.88 3.22  
Snow  
Snow 0.00 in - - ()
Month to date snowfall T  
Since 1 July snowfall 22.0  
Snow Depth 0.00 in    
Sea Level Pressure  
Sea Level Pressure 30.09 in    
Wind  
Wind Speed 10 mph (WSW)    
Max Wind Speed 12 mph    
Max Gust Speed 26 mph    
Visibility 10 miles    
Events      
T = Trace of Precipitation, MM = Missing Value Source: NWS Daily Summary

Daily Weather History Graph

Daily Weather History Graph

Search for Another Location

Airport or City:

Trip Planner

Search our weather history database for the weather conditions in past years. The results will help you decide how hot, cold, wet, or windy it might be!

Date:

Astronomy

Apr. 19, 2013 Rise Set
Actual Time 7:06 AM CDT 8:24 PM CDT
Civil Twilight 6:39 AM CDT 8:51 PM CDT
Nautical Twilight 6:07 AM CDT 9:23 PM CDT
Astronomical Twilight 5:33 AM CDT 9:57 PM CDT
Moon 2:20 PM CDT (4/19) 3:13 AM CDT (4/19)
Length of Visible Light 14h 11m
Length of Day
13h 17m
First Quarter, 62% of the Moon is Illuminated
Apr 19
First Quarter
Apr 25
Full
May 2
Last Quarter
May 9
New
May 17
First Quarter

Hourly Weather History & Observations

Time (CDT) Temp. Windchill Dew Point Humidity Pressure Visibility Wind Dir Wind Speed Gust Speed Precip Events Conditions
12:53 AM 28.0 °F 20.8 °F 17.1 °F 63% 30.22 in 10.0 mi West 6.9 mph - N/A   Clear
1:53 AM 27.0 °F 18.0 °F 17.1 °F 66% 30.23 in 10.0 mi West 9.2 mph - N/A   Clear
2:53 AM 27.0 °F 18.0 °F 18.0 °F 69% 30.22 in 10.0 mi WNW 9.2 mph - N/A   Clear
3:53 AM 26.1 °F 16.8 °F 19.0 °F 75% 30.20 in 10.0 mi West 9.2 mph - N/A   Clear
4:53 AM 25.0 °F 14.8 °F 19.0 °F 78% 30.18 in 10.0 mi West 10.4 mph - N/A   Clear
5:53 AM 26.1 °F 16.8 °F 19.0 °F 75% 30.18 in 10.0 mi West 9.2 mph - N/A   Clear
6:53 AM 27.0 °F 17.3 °F 19.0 °F 72% 30.18 in 10.0 mi WSW 10.4 mph - N/A   Clear
7:53 AM 30.9 °F 21.7 °F 19.9 °F 64% 30.18 in 10.0 mi West 11.5 mph - N/A   Clear
8:53 AM 39.0 °F 30.6 °F 19.9 °F 46% 30.18 in 10.0 mi West 15.0 mph - N/A   Clear
9:53 AM 48.0 °F - 19.0 °F 32% 30.14 in 10.0 mi West 12.7 mph 20.7 mph N/A   Clear
10:53 AM 55.0 °F - 10.9 °F 17% 30.12 in 10.0 mi WNW 11.5 mph - N/A   Clear
11:53 AM 57.0 °F - 12.9 °F 18% 30.12 in 10.0 mi NNW 10.4 mph 21.9 mph N/A   Clear
12:53 PM 59.0 °F - 12.9 °F 16% 30.11 in 10.0 mi West 9.2 mph 24.2 mph N/A   Clear
1:53 PM 62.1 °F - 12.9 °F 15% 30.06 in 10.0 mi NW 17.3 mph 26.5 mph N/A   Clear
2:53 PM 64.0 °F - 12.0 °F 13% 30.04 in 10.0 mi West 12.7 mph 18.4 mph N/A   Clear
3:53 PM 63.0 °F - 12.9 °F 14% 30.02 in 10.0 mi Variable 4.6 mph 19.6 mph N/A   Clear
4:53 PM 64.9 °F - 12.0 °F 13% 29.99 in 10.0 mi West 9.2 mph 16.1 mph N/A   Clear
5:53 PM 64.0 °F - 10.0 °F 12% 29.98 in 10.0 mi West 5.8 mph - N/A   Clear
6:53 PM 63.0 °F - 10.0 °F 13% 29.97 in 10.0 mi SSE 4.6 mph - N/A   Clear
7:53 PM 60.1 °F - 10.9 °F 14% 29.96 in 10.0 mi SSW 11.5 mph - N/A   Clear
8:53 PM 51.1 °F - 15.1 °F 24% 29.97 in 10.0 mi South 6.9 mph - N/A   Clear
9:53 PM 48.0 °F - 15.1 °F 27% 29.96 in 10.0 mi SSE 5.8 mph - N/A   Clear
10:53 PM 46.0 °F 43.1 °F 17.1 °F 31% 29.95 in 10.0 mi SSE 5.8 mph - N/A   Clear
11:53 PM 48.9 °F - 15.1 °F 26% 29.93 in 10.0 mi South 10.4 mph - N/A   Clear